Location: Jaite
(41.2884°N, 81.5737°W)
Time: 16:38:06
(UTC+00:00)

Cosmos 2082 - Pass Details

Date: 18 January 2020
Orbit: 833 x 856 km, 71.0° (Epoch: 18 February)

Event Time Altitude Azimuth Distance (km) Brightness Sun altitude
Exits shadow 10:54:44 25° 332° (NNW) 1,650 4.9 -21.1°
Maximum altitude 10:58:10 80° 248° (WSW) 868 3.6 -20.5°
Drops below altitude 10° 11:03:51 10° 163° (SSE) 2,474 6.5 -19.4°
Sets 11:06:17 0° 162° (SSE) 3,408 7.3 -19.0°
